Regional Weather Roundup
Issued by NWS

Home | Current Version | Previous Version | Text Only | Print | Product List | Glossary On
Versions: 1 2 3 4 5 6 7 8 9 10 11 12 13 14 15 16 17 18 19 20 21 22 23 24 25 26 27 28 29 30 31 32 33 34 35 36 37 38 39 40 41 42 43 44 45 46 47 48 49 50
000
ASCA42 TJSJ 270411
RWRPR
PUERTO RICO/U.S. VIRGIN ISLANDS HOURLY WEATHER ROUNDUP
NATIONAL WEATHER SERVICE SAN JUAN PR
1200 AM AST THU NOV 27 2014

PRZ001-004-270500-
PUERTO RICO

CITY           SKY/WX    TMP DP  RH WIND       PRES   REMARKS
SAN JUAN LMM   PTCLDY    77  75  94 CALM      30.01F
CEIBA          PTCLDY    81  72  74 E10       30.03F
$$

PRZ006-007-270500-
U.S. VIRGIN ISLANDS

CITY           SKY/WX    TMP DP  RH WIND       PRES   REMARKS
CHARLOTTE AMA  CLEAR     79  70  73 E10       30.00
CHRISTIANSTED  CLEAR     79  70  73 NE8       30.01
$$

HOURLY WEATHER ROUNDUP FOR THE NEWS MEDIA

CITY           SKY/WX    TMP DP  RH WIND       PRES   REMARKS
MIAMI          MOCLDY    60  44  55 N8        30.19R
ORLANDO        CLEAR     52  48  86 W5        30.21R
NEW YORK       FLURRIES  36  32  85 N18       29.81R WCI  26
NEWARK         CLOUDY    36  33  89 N15G22    29.83R WCI  27
CHICAGO        CLOUDY    28  23  81 NW10      30.16S WCI  19
HARTFORD       LGT RAIN  41  39  93 N17G30    29.58R FOG
BOSTON         LGT SNOW  33  31  92 N21G29    29.69F FOG     WCI  21
DALLAS         CLEAR     51  34  52 N7        30.36R
PHILADELPHIA   CLOUDY    37  31  78 NW12      29.90R WCI  29


USA.gov is the U.S. government's official web portal to all federal, state and local government web resources and services.